Simultaneous Nadir Overpasses (SNOs) Predictions

Prediction of SNOs between GOES-15 and LANDSAT-8 Satellite Orbit:

Table of predicted SNOs for the next 14.0 days since TLE Epoch: 1/24/2025
Index Date Time (GOES-15) GOES-15 Lat,Lon LANDSAT-8 Lat,Lon Distance(km) Time Diff (sec)
1 01/25/2025 05:59:10 -0.02, 61.56 -0.44, 63.56 226.99 80
2 01/25/2025 18:20:35 0.02, 61.55 -0.66, 58.36 362.28 80
3 01/27/2025 18:08:25 0.01, 61.59 -0.07, 61.32 30.95 80
4 01/29/2025 17:53:35 0.00, 61.63 0.55, 64.27 300.04 80
5 01/30/2025 06:14:50 -0.00, 61.67 0.54, 59.11 290.63 80
6 02/01/2025 06:05:20 -0.00, 61.71 -0.10, 62.06 40.50 80
7 02/03/2025 05:53:10 -0.00, 61.75 -0.70, 65.02 371.39 80
8 02/03/2025 18:14:33 0.00, 61.73 -0.43, 59.83 216.40 80
9 02/05/2025 17:59:42 -0.00, 61.78 0.20, 62.78 113.71 80
10 02/06/2025 06:20:58 0.00, 61.84 0.87, 57.62 479.23 80
11 02/07/2025 17:47:31 -0.01, 61.84 0.85, 65.73 443.40 80
